Regional Weather Roundup
Issued by NWS

Home | Current Version | Previous Version | Graphics & Text | Print | Product List | Glossary Off
Versions: 1 2 3 4 5 6 7 8 9 10 11 12 13 14 15 16 17 18 19 20 21 22 23 24 25 26 27 28 29 30 31 32 33 34 35 36 37 38 39 40 41 42 43 44 45 46 47 48 49 50

000
ASUS43 KDMX 251506
RWRIA

WEATHER ROUNDUP FOR IOWA
NATIONAL WEATHER SERVICE DES MOINES IA
1000 AM CDT SUN JUN 25 2017

NOTE: "FAIR" INDICATES FEW OR NO CLOUDS BELOW 12,000 FEET WITH NO
SIGNIFICANT WEATHER AND/OR OBSTRUCTIONS TO VISIBILITY.

* - THESE STATIONS ARE NOT NWS STATIONS...THUS NOT UNDER NWS
QUALITY CONTROL.  THEY ALSO DO NOT REPORT WEATHER SUCH
AS PRECIPITATION OR FOG.

IAZ001>003-012>014-020>022-031>034-043>046-251600-
   NORTHWEST IOWA

CITY           SKY/WX    TMP DP  RH WIND       PRES   REMARKS
CARROLL *      SUNNY     63  41  45 N21       30.28R
CHEROKEE *     MOSUNNY   61  46  59 NW12G20   30.29S
DENISON *      MOSUNNY   63  45  51 NW16G22   30.31S
LE MARS *      SUNNY     63  45  51 NW17G23   30.31F
ORANGE CITY *  MOSUNNY   61  48  63 NW16G22   30.30S
SHELDON *      MOSUNNY   61  45  55 NW16      30.27F
SIOUX CITY     SUNNY     64  46  52 N17G25    30.31S
SPENCER        SUNNY     62  44  51 NW14G23   30.26F
STORM LAKE *   SUNNY     61  43  51 NW21G28   30.28S
$$

IAZ055>058-069>071-079>083-090>094-251600-
   SOUTHWEST IOWA

CITY           SKY/WX    TMP DP  RH WIND       PRES   REMARKS
ATLANTIC *     SUNNY     64  43  45 N17G24    30.30S
AUDUBON *      SUNNY     63  45  51 NW13G20   30.30S
CLARINDA *     SUNNY     66  41  39 N17G24    30.33S
COUNCIL BLFS * SUNNY     64  45  48 NW10G17   30.33R
CRESTON *      SUNNY     63  45  51 NW17G28   30.30S
HARLAN  *      SUNNY     63  45  51 NW18G26   30.33S
LAMONI         SUNNY     66  44  45 NW18G29   30.28S
RED OAK *      SUNNY     64  46  52 NW10      30.32R
SHENANDOAH *   SUNNY     66  43  42 N14       30.32F
$$

IAZ047>049-059>061-072>074-084-251600-
   CENTRAL IOWA

CITY           SKY/WX    TMP DP  RH WIND       PRES   REMARKS
AMES           MOSUNNY   64  49  57 NW17G28   30.24S
ANKENY *       SUNNY     63  48  59 NW16G24   30.25F
BOONE *        MOSUNNY   61  46  59 MISG      30.24S
CHARITON *     MOSUNNY   64  46  52 NW16      30.25S
DES MOINES     MOSUNNY   65  47  52 NW16      30.24F
GRINNELL*      MOSUNNY   62  47  57 NW18G24   30.23S
KNOXVILLE *    MOSUNNY   63  46  55 NW16G25   30.23S
MARSHALLTOWN   MOSUNNY   61  48  62 NW23      30.21S
NEWTON *       SUNNY     63  46  55 NW15G25   30.23F
PELLA *        MOSUNNY   65  47  53 NW16G23   30.24F
PERRY *          N/A     64  47  53 W14G23    30.26S
$$

IAZ004>006-015-016-023>025-035-036-251600-
   NORTH CENTRAL IOWA

CITY           SKY/WX    TMP DP  RH WIND       PRES   REMARKS
ALGONA *       MOSUNNY   59  43  55 N17G24    30.24S
CLARION *        N/A     59  46  63 NW21G29   30.23S
ESTHERVILLE    SUNNY     59  42  53 NW18G26   30.24F
FORT DODGE *   SUNNY     61  45  55 NW13G21   30.26S
MASON CITY     CLOUDY    57  45  64 NW24      30.22S
FOREST CITY *  CLOUDY    57  39  51 NW20G26   30.21S
WEBSTER CITY * SUNNY     61  46  59 NW16G23   30.22S
IOWA FALLS *   CLOUDY    58  48  68 W18G24    30.23S
$$

IAZ007>011-017>019-026>030-037>042-050>054-066-251600-
   NORTHEAST IOWA

CITY           SKY/WX    TMP DP  RH WIND       PRES   REMARKS
CEDAR RAPIDS   MOSUNNY   63  51  65 NW16      30.18S
CHARLES CITY * CLOUDY    55  50  82 NW15      30.19S
CLINTON *      SUNNY     65  49  56 W18       30.16S
DECORAH *        N/A     55  48  76 NW8G15    30.15R
DUBUQUE        MOSUNNY   62  50  64 W14       30.16S
MONTICELLO *   MOSUNNY   63  48  59 W18       30.16S
OELWEIN *      CLOUDY    57  48  72 NW20G28   30.19S
WATERLOO       CLOUDY    58  45  62 W16G22    30.19R
$$

IAZ064-065-067-068-078-251600-
   EAST CENTRAL IOWA

CITY           SKY/WX    TMP DP  RH WIND       PRES   REMARKS
DAVENPORT      SUNNY     64  49  57 W16G23    30.18R
IOWA CITY      MOSUNNY   66  49  54 NW12G21   30.20F
MT. PLEASANT * SUNNY     65  45  47 NW10G23   30.21F
MUSCATINE *    SUNNY     66  46  48 NW14      30.20S
QUAD CITIES    SUNNY     66  49  54 W9        30.17S
$$

IAZ062-063-075>077-085>089-095>099-251600-
   SOUTHEAST IOWA

CITY           SKY/WX    TMP DP  RH WIND       PRES   REMARKS
BURLINGTON     SUNNY     67  47  48 NW8G20    30.20S
FAIRFIELD *    SUNNY     66  45  45 NW13G20   30.22S
FORT MADISON * SUNNY     66  46  48 NW13      30.22R
KEOKUK *       SUNNY     68  46  45 NW12      30.21S
OSKALOOSA *      N/A     65  46  51 NW15G22   30.23F
CENTERVILLE *    N/A     64  46  52 NW15      30.27S
OTTUMWA        SUNNY     66  46  48 NW14      30.22S
WASHINGTON *   SUNNY     66  48  52 NW18      30.22S
$$

ABBREVIATIONS USED IN REMARKS
   TC - TEMPERATURES IN CELSIUS
  WCI - WIND CHILL INDEX
   HX - HEAT INDEX
  VSB - VISIBILITY
$$





USA.gov is the U.S. government's official web portal to all federal, state and local government web resources and services.